N2UGS-WX Weather Reports


time (UTC)temp
C
wind
direction
speed
KPH
gust
KPH
rain 1hr
cm
rain 24hr
cm
rain mn
cm
humidity
%
barometer
mb
20260505083902 12 207 3.2 8.0 0.00 0.00 0.05 93 1001.4
20260505082402 12 168 4.8 8.0 0.00 0.00 0.05 95 1001.4
20260505080902 12 220 3.2 8.0 0.00 0.00 0.05 95 1001.7
20260505075502 12 203 1.6 9.7 0.00 0.00 0.05 95 1001.7
20260505074001 12 182 3.2 8.0 0.00 0.00 0.05 95 1002.0
20260505072502 11 248 8.0 8.0 0.00 0.00 0.05 94 1002.0
20260505071402 12 162 4.8 9.7 0.00 0.00 0.05 94 1002.4
20260505070002 12 172 6.4 9.7 0.00 0.00 0.05 94 1002.7
20260505064902 12 244 6.4 9.7 0.00 0.00 0.05 94 1002.7
20260505063503 12 153 4.8 14.5 0.05 0.00 0.05 94 1004.1
20260505062002 12 205 0.0 12.9 0.05 0.00 0.05 93 1003.7
20260505060502 12 194 6.4 12.9 0.05 0.00 0.05 92 1003.4
20260505055002 12 261 14.5 14.5 0.05 0.00 0.05 88 1004.1
20260505053502 14 216 22.5 27.4 0.00 0.00 0.00 78 1003.7
20260505052402 14 281 14.5 17.7 0.00 0.00 0.00 77 1003.4
20260505041503 17 218 14.5 16.1 0.00 0.00 0.00 71 1003.0
20260505040002 17 198 9.7 27.4 0.00 0.00 0.00 65 1003.0
20260505034502 17 230 9.7 16.1 0.00 0.00 0.00 68 1002.7
20260505033003 16 134 3.2 9.7 0.00 0.00 0.00 69 1002.7
20260505031502 15 263 3.2 6.4 0.00 0.00 0.00 68 1003.0
20260505030002 15 246 8.0 8.0 0.00 0.00 0.00 68 1003.4
20260505024502 15 246 6.4 8.0 0.00 0.00 0.00 68 1003.4
20260505023001 15 217 4.8 11.3 0.00 0.00 0.00 68 1003.4
20260505021902 15 229 12.9 14.5 0.00 0.00 0.00 68 1003.4
20260505020501 15 210 4.8 11.3 0.00 0.00 0.00 59 1003.7
20260505015402 15 202 1.6 3.2 0.00 0.00 0.00 56 1003.4
20260505013902 15 212 1.6 4.8 0.00 0.00 0.00 55 1003.4
20260505012502 15 223 0.0 9.7 0.00 0.00 0.00 55 1003.4
20260505011003 15 226 9.7 9.7 0.00 0.00 0.00 54 1003.4
20260505005902 15 242 3.2 9.7 0.00 0.00 0.00 54 1003.4
20260505004502 16 208 4.8 6.4 0.00 0.00 0.00 51 1003.4
20260505001502 18 191 1.6 6.4 0.00 0.00 0.00 40 1003.4
20260505000002 20 253 12.9 14.5 0.00 0.00 0.00 37 1003.4
20260504234502 20 283 6.4 11.3 0.00 0.00 0.00 36 1003.4
20260504233502 20 275 4.8 11.3 0.00 0.00 0.00 36 1003.4
20260504232003 20 231 12.9 16.1 0.00 0.00 0.00 36 1003.4
20260504230502 21 217 11.3 19.3 0.00 0.00 0.00 38 1003.7
20260504225002 21 305 6.4 20.9 0.00 0.00 0.00 40 1003.7
20260504224001 21 227 11.3 11.3 0.00 0.00 0.00 40 1003.7
20260504222502 21 256 3.2 14.5 0.00 0.00 0.00 39 1003.7
20260504221002 21 267 11.3 25.7 0.00 0.00 0.00 36 1003.4
20260504215502 22 287 9.7 17.7 0.00 0.00 0.00 32 1003.4
20260504214003 23 273 14.5 19.3 0.00 0.00 0.00 31 1003.4
20260504212502 23 235 14.5 17.7 0.00 0.00 0.00 31 1003.4
20260504211002 23 233 12.9 19.3 0.00 0.00 0.00 33 1003.7
20260504205502 22 305 14.5 20.9 0.00 0.00 0.00 35 1003.7
20260504204402 23 250 9.7 19.3 0.00 0.00 0.00 35 1004.1
20260504202902 23 297 4.8 20.9 0.00 0.00 0.00 38 1004.1
20260504201402 23 289 4.8 20.9 0.00 0.00 0.00 39 1004.1
20260504195902 23 275 4.8 12.9 0.00 0.00 0.00 37 1004.4
20260504194402 23 261 6.4 24.1 0.00 0.00 0.00 37 1004.4
20260504193002 24 246 9.7 14.5 0.00 0.00 0.00 35 1004.7
20260504191502 23 268 6.4 14.5 0.00 0.00 0.00 38 1005.1
20260504190501 23 209 14.5 25.7 0.00 0.00 0.00 37 1005.1
20260504185002 22 219 12.9 24.1 0.00 0.00 0.00 38 1005.1
20260504183402 23 230 9.7 17.7 0.00 0.00 0.00 37 1005.4
20260504182002 22 234 9.7 20.9 0.00 0.00 0.00 40 1005.4
20260504180502 22 287 11.3 17.7 0.00 0.00 0.00 39 1005.8
20260504175001 21 205 9.7 20.9 0.00 0.00 0.00 41 1006.1
20260504173501 21 222 6.4 25.7 0.00 0.00 0.00 44 1006.1
20260504172002 20 223 9.7 25.7 0.00 0.00 0.00 45 1006.1
20260504170902 20 249 17.7 30.6 0.00 0.00 0.00 44 1006.1
20260504150503 17 257 12.9 29.0 0.00 0.00 0.00 47 1007.1
20260504140502 15 246 22.5 32.2 0.00 0.00 0.00 49 1007.1